| time (UTC) | temp C | wind direction | speed KPH | gust KPH | rain 1hr cm | rain 24hr cm | rain mn cm | humidity % | barometer mb |
| 20260507142034 | 17 | 72 | 3.2 | 4.8 | 0.00 | 0.51 | 20.98 | 92 | 1011.7 |
| 20260507141534 | 17 | 73 | 1.6 | 3.2 | 0.00 | 0.51 | 20.98 | 92 | 1011.8 |
| 20260507141034 | 17 | 78 | 1.6 | 4.8 | 0.13 | 0.51 | 20.98 | 92 | 1011.7 |
| 20260507140534 | 17 | 78 | 1.6 | 3.2 | 0.13 | 0.51 | 20.98 | 93 | 1011.7 |
| 20260507140034 | 17 | 62 | 0.0 | 0.0 | 0.00 | 0.48 | 20.98 | 93 | 1011.6 |
| 20260507135534 | 17 | 20 | 4.8 | 4.8 | 0.00 | 0.48 | 20.98 | 93 | 1011.6 |
| 20260507135034 | 17 | 36 | 1.6 | 1.6 | 0.00 | 0.48 | 20.98 | 93 | 1011.7 |
| 20260507134534 | 17 | 35 | 1.6 | 1.6 | 0.30 | 0.48 | 20.98 | 93 | 1011.7 |
| 20260507134034 | 17 | 45 | 1.6 | 1.6 | 0.48 | 0.48 | 20.98 | 92 | 1011.7 |
| 20260507133534 | 16 | 73 | 1.6 | 3.2 | 0.66 | 0.43 | 20.98 | 92 | 1011.9 |
| 20260507133034 | 17 | 115 | 4.8 | 8.0 | 0.61 | 0.41 | 20.98 | 92 | 1012.2 |
| 20260507132534 | 17 | 83 | 1.6 | 3.2 | 0.61 | 0.36 | 20.98 | 92 | 1012.3 |
| 20260507132034 | 17 | 85 | 6.4 | 9.7 | 0.61 | 0.30 | 20.98 | 91 | 1012.4 |
| 20260507131534 | 17 | 78 | 3.2 | 4.8 | 0.61 | 0.25 | 20.98 | 91 | 1012.1 |
| 20260507131034 | 17 | 87 | 9.7 | 14.5 | 0.48 | 0.20 | 20.98 | 90 | 1012.4 |
| 20260507130534 | 17 | 61 | 8.0 | 12.9 | 0.18 | 0.15 | 20.98 | 89 | 1012.4 |
| 20260507130034 | 17 | 63 | 3.2 | 4.8 | 0.13 | 0.13 | 20.98 | 89 | 1012.4 |
| 20260507125534 | 17 | 56 | 8.0 | 9.7 | 0.30 | 0.13 | 20.98 | 89 | 1012.2 |
| 20260507125034 | 17 | 63 | 9.7 | 12.9 | 0.48 | 0.10 | 20.98 | 88 | 1012.4 |
| 20260507124534 | 18 | 83 | 3.2 | 3.2 | 0.48 | 0.08 | 20.98 | 87 | 1012.5 |
| 20260507124034 | 18 | 47 | 8.0 | 9.7 | 0.18 | 0.03 | 20.98 | 86 | 1012.4 |
| 20260507123534 | 18 | 28 | 8.0 | 14.5 | 0.00 | 0.00 | 20.98 | 85 | 1012.4 |
| 20260507123034 | 18 | 64 | 3.2 | 3.2 | 0.00 | 0.00 | 20.98 | 83 | 1012.6 |
| 20260507122534 | 18 | 68 | 12.9 | 20.9 | 0.00 | 0.00 | 20.98 | 81 | 1012.6 |
| 20260507122034 | 18 | 60 | 6.4 | 9.7 | 0.00 | 0.00 | 20.98 | 81 | 1012.5 |
| 20260507121534 | 18 | 75 | 4.8 | 9.7 | 0.00 | 0.00 | 20.98 | 81 | 1012.4 |
| 20260507121034 | 18 | 46 | 4.8 | 9.7 | 0.00 | 0.00 | 20.98 | 80 | 1012.2 |
| 20260507120534 | 18 | 98 | 4.8 | 4.8 | 0.00 | 0.00 | 20.98 | 80 | 1012.5 |
| 20260507120034 | 18 | 82 | 3.2 | 8.0 | 0.00 | 0.00 | 20.98 | 80 | 1012.5 |
| 20260507115534 | 18 | 54 | 9.7 | 12.9 | 0.00 | 0.00 | 20.98 | 80 | 1012.8 |
| 20260507115034 | 18 | 73 | 8.0 | 14.5 | 0.00 | 0.00 | 20.98 | 79 | 1012.5 |
| 20260507114534 | 18 | 72 | 8.0 | 12.9 | 0.00 | 0.00 | 20.98 | 78 | 1012.8 |
| 20260507114034 | 18 | 62 | 1.6 | 4.8 | 0.00 | 0.00 | 20.98 | 78 | 1012.7 |
| 20260507113534 | 18 | 56 | 8.0 | 9.7 | 0.00 | 0.00 | 20.98 | 78 | 1012.5 |
| 20260507113034 | 18 | 39 | 3.2 | 4.8 | 0.00 | 0.00 | 20.98 | 78 | 1012.7 |
| 20260507112534 | 19 | 63 | 11.3 | 14.5 | 0.00 | 0.00 | 20.98 | 77 | 1012.6 |
| 20260507112034 | 19 | 60 | 0.0 | 3.2 | 0.00 | 0.00 | 20.98 | 77 | 1012.6 |
| 20260507111534 | 19 | 82 | 9.7 | 16.1 | 0.00 | 0.00 | 20.98 | 77 | 1012.8 |
| 20260507111034 | 19 | 128 | 4.8 | 11.3 | 0.00 | 0.00 | 20.98 | 78 | 1013.0 |
| 20260507110534 | 18 | 94 | 9.7 | 12.9 | 0.00 | 0.00 | 20.98 | 78 | 1012.9 |
| 20260507110034 | 19 | 76 | 8.0 | 9.7 | 0.00 | 0.00 | 20.98 | 78 | 1012.8 |
| 20260507105534 | 19 | 74 | 3.2 | 8.0 | 0.00 | 0.00 | 20.98 | 78 | 1012.9 |
| 20260507105034 | 18 | 35 | 3.2 | 3.2 | 0.00 | 0.00 | 20.98 | 79 | 1012.9 |
| 20260507104534 | 18 | 69 | 3.2 | 4.8 | 0.00 | 0.00 | 20.98 | 80 | 1013.3 |
| 20260507104034 | 18 | 64 | 11.3 | 14.5 | 0.00 | 0.00 | 20.98 | 80 | 1013.1 |
| 20260507103534 | 18 | 86 | 9.7 | 12.9 | 0.00 | 0.00 | 20.98 | 80 | 1013.1 |
| 20260507103034 | 18 | 63 | 4.8 | 8.0 | 0.00 | 0.00 | 20.98 | 80 | 1013.1 |
| 20260507102534 | 18 | 47 | 3.2 | 8.0 | 0.00 | 0.00 | 20.98 | 80 | 1012.9 |
| 20260507102034 | 18 | 99 | 11.3 | 16.1 | 0.00 | 0.00 | 20.98 | 81 | 1013.2 |
| 20260507101534 | 18 | 63 | 9.7 | 14.5 | 0.00 | 0.00 | 20.98 | 81 | 1013.0 |
| 20260507101034 | 18 | 76 | 11.3 | 17.7 | 0.00 | 0.00 | 20.98 | 81 | 1013.1 |
| 20260507100534 | 18 | 95 | 9.7 | 11.3 | 0.00 | 0.00 | 20.98 | 81 | 1013.1 |
| 20260507100033 | 18 | 89 | 6.4 | 12.9 | 0.00 | 0.00 | 20.98 | 81 | 1013.1 |
| 20260507095534 | 18 | 87 | 6.4 | 9.7 | 0.00 | 0.00 | 20.98 | 81 | 1013.0 |
| 20260507095034 | 18 | 56 | 6.4 | 8.0 | 0.00 | 0.00 | 20.98 | 81 | 1013.0 |
| 20260507094534 | 18 | 93 | 8.0 | 12.9 | 0.00 | 0.00 | 20.98 | 81 | 1012.9 |
| 20260507094034 | 18 | 90 | 6.4 | 8.0 | 0.00 | 0.00 | 20.98 | 81 | 1012.8 |
| 20260507093034 | 18 | 70 | 6.4 | 9.7 | 0.00 | 0.00 | 20.98 | 81 | 1013.1 |
| 20260507092034 | 18 | 90 | 6.4 | 9.7 | 0.00 | 0.00 | 20.98 | 80 | 1013.4 |
| 20260507091534 | 18 | 116 | 3.2 | 4.8 | 0.00 | 0.00 | 20.98 | 80 | 1013.5 |
| 20260507091034 | 18 | 55 | 8.0 | 12.9 | 0.00 | 0.00 | 20.98 | 79 | 1013.3 |
| 20260507090533 | 18 | 91 | 12.9 | 16.1 | 0.00 | 0.00 | 20.98 | 79 | 1013.1 |
| 20260507090034 | 18 | 65 | 8.0 | 11.3 | 0.00 | 0.00 | 20.98 | 79 | 1013.1 |
| 20260507085534 | 18 | 87 | 9.7 | 22.5 | 0.00 | 0.00 | 20.98 | 78 | 1013.2 |
| 20260507084909 | 18 | 65 | 3.2 | 4.8 | 0.00 | 0.00 | 20.98 | 78 | 1012.9 |
| 20260507084409 | 18 | 48 | 11.3 | 14.5 | 0.00 | 0.00 | 20.98 | 78 | 1013.1 |
| 20260507083909 | 18 | 65 | 12.9 | 17.7 | 0.00 | 0.00 | 20.98 | 77 | 1013.1 |
| 20260507082959 | 18 | 95 | 3.2 | 8.0 | 0.00 | 0.00 | 20.98 | 78 | 1013.0 |
| 20260507082421 | 18 | 68 | 8.0 | 11.3 | 0.00 | 0.00 | 20.98 | 78 | 1013.0 |
| 20260507081921 | 18 | 62 | 6.4 | 11.3 | 0.00 | 0.00 | 20.98 | 79 | 1013.2 |
| 20260507081421 | 18 | 44 | 9.7 | 14.5 | 0.00 | 0.00 | 20.98 | 79 | 1012.8 |
| 20260507080921 | 18 | 65 | 6.4 | 11.3 | 0.00 | 0.00 | 20.98 | 80 | 1013.0 |
| 20260507080421 | 18 | 53 | 1.6 | 1.6 | 0.00 | 0.00 | 20.98 | 80 | 1013.1 |
| 20260507075921 | 18 | 76 | 3.2 | 4.8 | 0.00 | 0.00 | 20.98 | 80 | 1013.1 |
| 20260507075421 | 18 | 59 | 4.8 | 8.0 | 0.00 | 0.00 | 20.98 | 80 | 1013.0 |
| 20260507074921 | 18 | 42 | 9.7 | 14.5 | 0.00 | 0.00 | 20.98 | 80 | 1012.9 |
| 20260507074421 | 18 | 88 | 8.0 | 11.3 | 0.00 | 0.00 | 20.98 | 81 | 1013.1 |
| 20260507073921 | 18 | 93 | 6.4 | 12.9 | 0.00 | 0.00 | 20.98 | 81 | 1013.1 |
| 20260507073421 | 18 | 69 | 4.8 | 9.7 | 0.00 | 0.00 | 20.98 | 81 | 1012.9 |
| 20260507072921 | 18 | 78 | 1.6 | 3.2 | 0.00 | 0.00 | 20.98 | 81 | 1013.0 |
| 20260507070421 | 18 | 325 | 4.8 | 8.0 | 0.00 | 0.00 | 20.98 | 81 | 1012.7 |
| 20260507065921 | 18 | 99 | 19.3 | 27.4 | 0.00 | 0.00 | 20.98 | 81 | 1012.5 |
| 20260507065421 | 18 | 68 | 14.5 | 17.7 | 0.00 | 0.00 | 20.98 | 81 | 1012.5 |
| 20260507064921 | 18 | 68 | 6.4 | 11.3 | 0.00 | 0.00 | 20.98 | 81 | 1012.3 |
| 20260507064421 | 18 | 65 | 1.6 | 3.2 | 0.00 | 0.00 | 20.98 | 82 | 1012.4 |
| 20260507063921 | 18 | 75 | 6.4 | 12.9 | 0.00 | 0.00 | 20.98 | 82 | 1012.2 |
| 20260507063421 | 18 | 62 | 4.8 | 8.0 | 0.00 | 0.00 | 20.98 | 82 | 1012.2 |
| 20260507062921 | 18 | 71 | 8.0 | 11.3 | 0.00 | 0.00 | 20.98 | 82 | 1012.4 |
| 20260507062421 | 18 | 85 | 8.0 | 11.3 | 0.00 | 0.00 | 20.98 | 83 | 1012.3 |
| 20260507061921 | 18 | 68 | 8.0 | 9.7 | 0.00 | 0.00 | 20.98 | 83 | 1012.4 |
| 20260507061421 | 18 | 94 | 6.4 | 11.3 | 0.00 | 0.00 | 20.98 | 84 | 1012.3 |
| 20260507060921 | 18 | 93 | 8.0 | 14.5 | 0.00 | 0.00 | 20.98 | 84 | 1012.1 |
| 20260507060421 | 17 | 56 | 3.2 | 3.2 | 0.00 | 0.00 | 20.98 | 85 | 1012.2 |
| 20260507055421 | 17 | 64 | 9.7 | 11.3 | 0.00 | 0.00 | 20.98 | 86 | 1012.5 |
| 20260507054921 | 17 | 37 | 3.2 | 4.8 | 0.00 | 0.00 | 20.98 | 86 | 1012.3 |
| 20260507054421 | 17 | 75 | 8.0 | 9.7 | 0.00 | 0.00 | 20.98 | 86 | 1012.4 |
| 20260507053921 | 17 | 77 | 9.7 | 14.5 | 0.00 | 0.00 | 20.98 | 87 | 1012.5 |
| 20260507053421 | 17 | 74 | 1.6 | 1.6 | 0.00 | 0.00 | 20.98 | 87 | 1012.4 |
| 20260507052922 | 17 | 76 | 3.2 | 8.0 | 0.00 | 0.00 | 20.98 | 87 | 1012.2 |
| 20260507052421 | 17 | 86 | 6.4 | 12.9 | 0.00 | 0.00 | 20.98 | 87 | 1012.3 |
| 20260507051921 | 17 | 65 | 1.6 | 1.6 | 0.00 | 0.00 | 20.98 | 87 | 1012.1 |
| 20260507051421 | 17 | 61 | 8.0 | 9.7 | 0.00 | 0.00 | 20.98 | 87 | 1012.1 |
| 20260507050921 | 18 | 60 | 6.4 | 9.7 | 0.00 | 0.00 | 20.98 | 87 | 1012.1 |
| 20260507045421 | 17 | 90 | 6.4 | 8.0 | 0.00 | 0.00 | 20.98 | 86 | 1011.9 |
| 20260507044921 | 17 | 69 | 11.3 | 14.5 | 0.00 | 0.00 | 20.98 | 86 | 1011.9 |
| 20260507044420 | 17 | 59 | 3.2 | 4.8 | 0.00 | 0.00 | 20.98 | 86 | 1011.7 |
| 20260507043920 | 17 | 33 | 6.4 | 9.7 | 0.00 | 0.00 | 20.98 | 85 | 1011.8 |
| 20260507043421 | 17 | 82 | 4.8 | 4.8 | 0.00 | 0.00 | 20.98 | 85 | 1011.9 |
| 20260507042921 | 17 | 69 | 8.0 | 11.3 | 0.00 | 0.00 | 20.98 | 86 | 1011.9 |
| 20260507042421 | 17 | 58 | 3.2 | 3.2 | 0.00 | 0.00 | 20.98 | 86 | 1011.9 |
| 20260507041921 | 17 | 91 | 1.6 | 3.2 | 0.00 | 0.00 | 20.98 | 86 | 1012.0 |
| 20260507041420 | 17 | 67 | 8.0 | 14.5 | 0.00 | 0.00 | 20.98 | 86 | 1011.9 |
| 20260507040921 | 17 | 62 | 6.4 | 9.7 | 0.00 | 0.00 | 20.98 | 86 | 1011.8 |
| 20260507040421 | 17 | 87 | 8.0 | 11.3 | 0.00 | 0.00 | 20.98 | 86 | 1011.9 |
| 20260507035921 | 17 | 57 | 1.6 | 3.2 | 0.00 | 0.00 | 20.98 | 86 | 1011.8 |
| 20260507035421 | 17 | 29 | 1.6 | 1.6 | 0.00 | 0.00 | 20.98 | 86 | 1011.7 |
| 20260507034921 | 17 | 76 | 4.8 | 9.7 | 0.00 | 0.00 | 20.98 | 86 | 1011.8 |
| 20260507034421 | 17 | 73 | 4.8 | 4.8 | 0.00 | 0.00 | 20.98 | 86 | 1011.5 |
| 20260507033921 | 17 | 66 | 9.7 | 12.9 | 0.00 | 0.00 | 20.98 | 86 | 1011.7 |
| 20260507033421 | 17 | 61 | 9.7 | 11.3 | 0.00 | 0.00 | 20.98 | 85 | 1011.7 |
| 20260507032921 | 17 | 41 | 1.6 | 3.2 | 0.00 | 0.00 | 20.98 | 85 | 1011.5 |
| 20260507032421 | 17 | 41 | 3.2 | 4.8 | 0.00 | 0.00 | 20.98 | 85 | 1011.8 |
| 20260507031921 | 17 | 56 | 9.7 | 12.9 | 0.00 | 0.00 | 20.98 | 85 | 1011.8 |
| 20260507031421 | 17 | 70 | 3.2 | 4.8 | 0.00 | 0.00 | 20.98 | 84 | 1011.8 |
| 20260507030921 | 17 | 67 | 3.2 | 8.0 | 0.00 | 0.00 | 20.98 | 84 | 1011.8 |
| 20260507030421 | 18 | 61 | 1.6 | 1.6 | 0.00 | 0.00 | 20.98 | 84 | 1012.0 |
| 20260507025920 | 18 | 69 | 4.8 | 4.8 | 0.00 | 0.00 | 20.98 | 84 | 1012.0 |
| 20260507025420 | 18 | 53 | 6.4 | 11.3 | 0.00 | 0.00 | 20.98 | 83 | 1011.9 |
| 20260507024920 | 18 | 33 | 3.2 | 4.8 | 0.00 | 0.00 | 20.98 | 83 | 1012.0 |
| 20260507024421 | 18 | 56 | 6.4 | 11.3 | 0.00 | 0.00 | 20.98 | 83 | 1011.8 |
| 20260507023920 | 18 | 60 | 4.8 | 8.0 | 0.00 | 0.00 | 20.98 | 83 | 1012.0 |
| 20260507023424 | 18 | 63 | 8.0 | 12.9 | 0.00 | 0.00 | 20.98 | 83 | 1012.1 |
| 20260507022921 | 18 | 63 | 9.7 | 11.3 | 0.00 | 0.00 | 20.98 | 83 | 1012.0 |
| 20260507022420 | 18 | 66 | 1.6 | 1.6 | 0.00 | 0.00 | 20.98 | 82 | 1012.1 |
| 20260507021920 | 18 | 81 | 6.4 | 8.0 | 0.00 | 0.00 | 20.98 | 82 | 1012.0 |
| 20260507021421 | 18 | 70 | 4.8 | 9.7 | 0.00 | 0.00 | 20.98 | 82 | 1012.2 |
| 20260507020920 | 18 | 65 | 1.6 | 3.2 | 0.00 | 0.00 | 20.98 | 81 | 1012.2 |
| 20260507020422 | 18 | 45 | 4.8 | 8.0 | 0.00 | 0.00 | 20.98 | 81 | 1012.2 |
| 20260507015920 | 18 | 58 | 1.6 | 3.2 | 0.00 | 0.00 | 20.98 | 81 | 1012.3 |
| 20260507015422 | 18 | 81 | 3.2 | 8.0 | 0.00 | 0.00 | 20.98 | 81 | 1012.4 |
| 20260507014921 | 18 | 52 | 3.2 | 4.8 | 0.00 | 0.00 | 20.98 | 81 | 1012.6 |
| 20260507014420 | 18 | 64 | 3.2 | 3.2 | 0.00 | 0.00 | 20.98 | 81 | 1012.6 |
| 20260507013920 | 18 | 76 | 4.8 | 4.8 | 0.00 | 0.00 | 20.98 | 81 | 1012.8 |
| 20260507013424 | 18 | 38 | 1.6 | 3.2 | 0.00 | 0.00 | 20.98 | 81 | 1012.7 |
| 20260507012920 | 18 | 61 | 3.2 | 4.8 | 0.00 | 0.00 | 20.98 | 81 | 1012.6 |
| 20260507012421 | 18 | 64 | 4.8 | 9.7 | 0.00 | 0.00 | 20.98 | 81 | 1012.5 |
| 20260507011920 | 18 | 59 | 3.2 | 3.2 | 0.00 | 0.00 | 20.98 | 81 | 1012.2 |
| 20260507011421 | 18 | 82 | 8.0 | 9.7 | 0.00 | 0.00 | 20.98 | 81 | 1012.3 |
| 20260507010920 | 18 | 78 | 3.2 | 4.8 | 0.00 | 0.00 | 20.98 | 81 | 1012.7 |
| 20260507010420 | 18 | 71 | 1.6 | 3.2 | 0.00 | 0.00 | 20.98 | 81 | 1012.6 |
| 20260507005920 | 18 | 64 | 1.6 | 1.6 | 0.00 | 0.00 | 20.98 | 82 | 1012.5 |
| 20260507005420 | 18 | 60 | 1.6 | 3.2 | 0.00 | 0.00 | 20.98 | 83 | 1012.6 |
| 20260507004920 | 18 | 50 | 1.6 | 1.6 | 0.00 | 0.00 | 20.98 | 83 | 1012.5 |
| 20260507004420 | 18 | 33 | 4.8 | 4.8 | 0.00 | 0.00 | 20.98 | 83 | 1012.5 |
| 20260507003920 | 18 | 55 | 1.6 | 1.6 | 0.00 | 0.00 | 20.98 | 83 | 1012.4 |
| 20260507003420 | 18 | 33 | 1.6 | 3.2 | 0.00 | 0.00 | 20.98 | 83 | 1012.5 |
| 20260507002920 | 18 | 87 | 1.6 | 3.2 | 0.00 | 0.00 | 20.98 | 82 | 1012.8 |
| 20260507002421 | 18 | 98 | 6.4 | 8.0 | 0.00 | 0.00 | 20.98 | 82 | 1012.5 |
| 20260507001920 | 18 | 40 | 3.2 | 4.8 | 0.00 | 0.00 | 20.98 | 82 | 1012.4 |
| 20260507001420 | 18 | 74 | 6.4 | 9.7 | 0.00 | 0.00 | 20.98 | 82 | 1012.4 |
| 20260507000920 | 18 | 75 | 6.4 | 11.3 | 0.00 | 0.00 | 20.98 | 82 | 1012.6 |
| 20260507000422 | 18 | 63 | 3.2 | 4.8 | 0.00 | 0.00 | 20.98 | 82 | 1012.5 |
| 20260506235920 | 18 | 77 | 1.6 | 1.6 | 0.00 | 0.00 | 20.98 | 82 | 1012.6 |
| 20260506235420 | 18 | 58 | 4.8 | 9.7 | 0.00 | 0.00 | 20.98 | 82 | 1013.0 |
| 20260506234920 | 18 | 73 | 1.6 | 1.6 | 0.00 | 0.00 | 20.98 | 82 | 1012.8 |
| 20260506234421 | 18 | 64 | 4.8 | 4.8 | 0.00 | 0.00 | 20.98 | 82 | 1013.0 |
| 20260506233420 | 18 | 70 | 0.0 | 0.0 | 0.00 | 0.00 | 20.98 | 82 | 1013.1 |
| 20260506232920 | 18 | 100 | 4.8 | 4.8 | 0.00 | 0.00 | 20.98 | 82 | 1012.9 |
| 20260506232420 | 18 | 67 | 1.6 | 3.2 | 0.00 | 0.00 | 20.98 | 82 | 1012.9 |
| 20260506231920 | 18 | 102 | 1.6 | 1.6 | 0.00 | 0.00 | 20.98 | 81 | 1013.1 |
| 20260506231420 | 18 | 95 | 4.8 | 4.8 | 0.00 | 0.00 | 20.98 | 81 | 1013.1 |
| 20260506230920 | 18 | 64 | 1.6 | 3.2 | 0.00 | 0.00 | 20.98 | 81 | 1013.0 |
| 20260506230420 | 18 | 109 | 4.8 | 8.0 | 0.00 | 0.00 | 20.98 | 81 | 1013.0 |
| 20260506225920 | 18 | 80 | 6.4 | 8.0 | 0.00 | 0.00 | 20.98 | 82 | 1013.2 |
| 20260506225420 | 18 | 87 | 4.8 | 4.8 | 0.00 | 0.00 | 20.98 | 82 | 1013.1 |
| 20260506224920 | 18 | 79 | 4.8 | 4.8 | 0.00 | 0.00 | 20.98 | 82 | 1013.1 |
| 20260506224420 | 18 | 95 | 1.6 | 3.2 | 0.00 | 0.00 | 20.98 | 82 | 1013.1 |
| 20260506223923 | 18 | 83 | 1.6 | 3.2 | 0.00 | 0.00 | 20.98 | 82 | 1013.2 |
| 20260506223420 | 18 | 74 | 1.6 | 3.2 | 0.00 | 0.00 | 20.98 | 81 | 1013.0 |
| 20260506222920 | 18 | 107 | 0.0 | 0.0 | 0.00 | 0.00 | 20.98 | 81 | 1013.0 |
| 20260506222420 | 18 | 62 | 1.6 | 1.6 | 0.00 | 0.00 | 20.98 | 82 | 1012.9 |
| 20260506221920 | 18 | 65 | 4.8 | 4.8 | 0.00 | 0.00 | 20.98 | 82 | 1012.9 |
| 20260506221420 | 18 | 97 | 4.8 | 8.0 | 0.00 | 0.00 | 20.98 | 81 | 1013.2 |
| 20260506220920 | 18 | 81 | 3.2 | 3.2 | 0.00 | 0.00 | 20.98 | 81 | 1013.2 |
| 20260506220420 | 18 | 116 | 1.6 | 1.6 | 0.00 | 0.00 | 20.98 | 82 | 1013.2 |
| 20260506215920 | 18 | 89 | 3.2 | 4.8 | 0.00 | 0.00 | 20.98 | 82 | 1013.1 |
| 20260506215420 | 18 | 119 | 3.2 | 4.8 | 0.00 | 0.00 | 20.98 | 82 | 1013.2 |
| 20260506214920 | 18 | 112 | 4.8 | 8.0 | 0.00 | 0.00 | 20.98 | 83 | 1013.5 |
| 20260506214420 | 18 | 113 | 3.2 | 3.2 | 0.00 | 0.00 | 20.98 | 82 | 1013.5 |
| 20260506213920 | 18 | 99 | 4.8 | 4.8 | 0.00 | 0.00 | 20.98 | 82 | 1013.4 |
| 20260506213420 | 18 | 85 | 4.8 | 4.8 | 0.00 | 0.00 | 20.98 | 82 | 1013.3 |
| 20260506212923 | 18 | 77 | 8.0 | 11.3 | 0.00 | 0.00 | 20.98 | 82 | 1013.5 |
| 20260506212420 | 18 | 88 | 1.6 | 3.2 | 0.00 | 0.00 | 20.98 | 82 | 1013.3 |
| 20260506211920 | 18 | 89 | 3.2 | 3.2 | 0.00 | 0.00 | 20.98 | 82 | 1013.4 |
| 20260506211420 | 18 | 124 | 0.0 | 1.6 | 0.00 | 0.00 | 20.98 | 81 | 1013.6 |
| 20260506210920 | 18 | 104 | 3.2 | 3.2 | 0.00 | 0.00 | 20.98 | 82 | 1013.6 |
| 20260506210421 | 18 | 92 | 3.2 | 3.2 | 0.00 | 0.00 | 20.98 | 82 | 1013.6 |
| 20260506205920 | 18 | 80 | 3.2 | 4.8 | 0.00 | 0.00 | 20.98 | 83 | 1013.5 |
| 20260506205420 | 18 | 117 | 8.0 | 11.3 | 0.00 | 0.00 | 20.98 | 83 | 1013.5 |
| 20260506204923 | 18 | 83 | 3.2 | 3.2 | 0.00 | 0.00 | 20.98 | 83 | 1013.3 |
| 20260506204421 | 18 | 83 | 3.2 | 3.2 | 0.00 | 0.00 | 20.98 | 84 | 1013.4 |
| 20260506203920 | 18 | 93 | 4.8 | 8.0 | 0.00 | 0.00 | 20.98 | 84 | 1013.3 |
| 20260506203420 | 18 | 130 | 4.8 | 4.8 | 0.00 | 0.00 | 20.98 | 84 | 1013.3 |
| 20260506202920 | 18 | 83 | 8.0 | 9.7 | 0.00 | 0.00 | 20.98 | 84 | 1013.3 |
| 20260506202420 | 18 | 92 | 1.6 | 1.6 | 0.00 | 0.00 | 20.98 | 84 | 1013.3 |
| 20260506201923 | 18 | 120 | 4.8 | 4.8 | 0.00 | 0.00 | 20.98 | 84 | 1013.1 |
| 20260506201420 | 18 | 115 | 6.4 | 9.7 | 0.00 | 0.00 | 20.98 | 84 | 1013.0 |
| 20260506200920 | 18 | 108 | 6.4 | 9.7 | 0.00 | 0.00 | 20.98 | 84 | 1013.0 |
| 20260506200420 | 18 | 84 | 6.4 | 9.7 | 0.00 | 0.00 | 20.98 | 84 | 1012.9 |
| 20260506195920 | 18 | 99 | 4.8 | 8.0 | 0.00 | 0.00 | 20.98 | 84 | 1012.8 |
| 20260506195420 | 18 | 96 | 3.2 | 3.2 | 0.00 | 0.00 | 20.98 | 84 | 1012.7 |
| 20260506194920 | 18 | 109 | 6.4 | 8.0 | 0.00 | 0.00 | 20.98 | 84 | 1012.6 |
| 20260506194420 | 18 | 79 | 4.8 | 9.7 | 0.00 | 0.00 | 20.98 | 84 | 1012.5 |
| 20260506193920 | 18 | 87 | 3.2 | 3.2 | 0.00 | 0.00 | 20.98 | 83 | 1012.3 |
| 20260506193420 | 18 | 74 | 1.6 | 3.2 | 0.00 | 0.00 | 20.98 | 83 | 1012.5 |
| 20260506192920 | 18 | 100 | 1.6 | 1.6 | 0.00 | 0.00 | 20.98 | 84 | 1012.5 |
| 20260506192420 | 18 | 68 | 3.2 | 4.8 | 0.00 | 0.00 | 20.98 | 84 | 1012.4 |
| 20260506191920 | 18 | 83 | 4.8 | 4.8 | 0.00 | 0.00 | 20.98 | 84 | 1012.3 |
| 20260506191421 | 18 | 66 | 8.0 | 9.7 | 0.00 | 0.00 | 20.98 | 84 | 1012.3 |
| 20260506190920 | 18 | 89 | 9.7 | 12.9 | 0.00 | 0.00 | 20.98 | 84 | 1012.3 |
| 20260506190420 | 18 | 88 | 8.0 | 9.7 | 0.00 | 0.00 | 20.98 | 83 | 1012.2 |
| 20260506185920 | 18 | 60 | 1.6 | 1.6 | 0.00 | 0.00 | 20.98 | 82 | 1012.2 |
| 20260506185420 | 19 | 85 | 3.2 | 3.2 | 0.00 | 0.00 | 20.98 | 82 | 1012.3 |
| 20260506184920 | 18 | 66 | 8.0 | 9.7 | 0.00 | 0.00 | 20.98 | 81 | 1012.0 |
| 20260506184420 | 18 | 121 | 11.3 | 14.5 | 0.00 | 0.00 | 20.98 | 80 | 1012.2 |
| 20260506183920 | 18 | 98 | 9.7 | 12.9 | 0.00 | 0.00 | 20.98 | 80 | 1012.0 |
| 20260506183420 | 18 | 67 | 9.7 | 11.3 | 0.00 | 0.00 | 20.98 | 80 | 1012.0 |
| 20260506182920 | 18 | 124 | 1.6 | 3.2 | 0.00 | 0.00 | 20.98 | 80 | 1012.0 |
| 20260506182420 | 18 | 93 | 14.5 | 16.1 | 0.00 | 0.00 | 20.98 | 80 | 1011.9 |
| 20260506181920 | 18 | 88 | 9.7 | 11.3 | 0.00 | 0.00 | 20.98 | 81 | 1011.9 |
| 20260506181420 | 19 | 95 | 11.3 | 12.9 | 0.00 | 0.00 | 20.98 | 81 | 1011.9 |
| 20260506180920 | 18 | 85 | 3.2 | 3.2 | 0.00 | 0.00 | 20.98 | 82 | 1011.9 |
| 20260506180420 | 19 | 116 | 8.0 | 9.7 | 0.00 | 0.00 | 20.98 | 82 | 1012.0 |
| 20260506175920 | 19 | 63 | 9.7 | 12.9 | 0.00 | 0.00 | 20.98 | 81 | 1012.0 |
| 20260506175420 | 19 | 92 | 8.0 | 11.3 | 0.00 | 0.00 | 20.98 | 81 | 1011.8 |